Regional Weather Roundup
Issued by NWS

Home | Current Version | Previous Version | Graphics & Text | Print | Product List | Glossary On
Versions: 1 2 3 4 5 6 7 8 9 10 11 12 13 14 15 16 17 18 19 20 21 22 23 24 25 26 27 28 29 30 31 32 33 34 35 36 37 38 39 40 41 42 43 44 45 46 47 48 49 50
000
ASUS43 KDTX 251601
RWRMI
MICHIGAN HOURLY REGIONAL WEATHER ROUNDUP
NATIONAL WEATHER SERVICE DETROIT/PONTIAC MI
1100 AM EST SUN JAN 25 2015

NOTE: "FAIR" INDICATES FEW OR NO CLOUDS BELOW 12,000 FEET WITH NO
SIGNIFICANT WEATHER AND/OR OBSTRUCTION TO VISIBILITY.

MIZ047>049-052>055-059>063-066>070-074>076-081>083-251700-
SOUTHEAST LOWER MICHIGAN

CITY           SKY/WX    TMP DP  RH WIND       PRES   REMARKS
ADRIAN         LGT SNOW  25  21  85 E13       29.87R FOG     WCI  14
ALMA           PTSUNNY   19  13  75 NE16      29.95R WCI   5
ANN ARBOR      CLOUDY    24  16  71 NE13G21   29.88R WCI  12
BAD AXE        PTSUNNY   19  11  72 NE13      29.95R WCI   6
CARO           PTSUNNY   21  12  67 CALM      29.94R
DETROIT CITY   CLOUDY    26  15  63 NE16G22   29.91R WCI  14
DETROIT        CLOUDY    25  17  72 NE9       29.91R WCI  15
FLINT          CLOUDY    24  14  65 E16       29.92R WCI  11
GROSSE ILE     CLOUDY    25  18  74 NE14      29.89R WCI  13
HILLSDALE      LGT SNOW  27  24  87 E16       29.81R WCI  15
HOWELL         CLOUDY    23  15  72 NE10G16   29.88R WCI  12

CITY           SKY/WX    TMP DP  RH WIND       PRES   REMARKS
JACKSON        LGT SNOW  25  18  74 NE12G18   29.85R WCI  14
LAMBERTVILLE   LGT SNOW  27  23  86 E9        29.88R VSB 1   WCI  17
LANSING        PTSUNNY   21  14  74 NE17      29.90R WCI   7
LAPEER         CLOUDY    20  12  71 NE10G17   29.92R WCI   9
MASON          CLOUDY    23  15  71 E15G21    29.88R WCI  10
MONROE         LGT SNOW  27  19  74 NE10G17   29.87R WCI  17
MT. CLEMENS    CLOUDY    25  16  69 N16       29.89R WCI  12
PONTIAC        CLOUDY    21  13  71 NE16      29.89  WCI   7
PORT HOPE        N/A     20  10  65 NE16      29.95R WCI   6
PORT HURON     CLOUDY    23  16  74 NE13G21   29.93R WCI  11
TRI CITIES     PTSUNNY   20  12  71 NE16      29.96R WCI   6
TROY           CLOUDY    26  17  68 N12G17    29.92R WCI  15
SAGINAW HB     CLOUDY    21  16  79 N15       29.95R WCI   8
$$
MIZ043>046-050>051-056>058-064>065-071>073-077>080-251700-
SOUTHWEST LOWER MICHIGAN

CITY           SKY/WX    TMP DP  RH WIND       PRES   REMARKS
BATTLE CREEK   LGT SNOW  27  19  72 NE16      29.84R WCI  15
BENTON HARBOR  LGT SNOW  29  27  92 NE10G20   29.81R FOG     WCI  20
BIG RAPIDS     SUNNY     17  10  76 E8        29.93R WCI   6
COLDWATER      LGT SNOW  28  25  89 NE12      29.81R WCI  18
FREMONT        FAIR      19   9  64 E14       29.92R WCI   6
HOLLAND        CLOUDY    27  16  63 E15G24    29.87R WCI  15
GRAND RAPIDS   PTSUNNY   22  14  71 NE21      29.89R WCI   6
IONIA          FAIR      22  15  72 E16G24    29.90R WCI   9
KALAMAZOO      LGT SNOW  26  20  77 NE10G18   29.84R WCI  16
LUDINGTON      SUNNY     18   5  56 E14       29.96R WCI   4
MARSHALL       FLURRIES  25  19  78 NE8       29.84R WCI  16
MOUNT PLEASANT MOSUNNY   19   8  64 NE9G18    29.95R WCI   7
MUSKEGON       PTSUNNY   24  12  60 NE14      29.91R WCI  12
SOUTH HAVEN    FLURRIES  29  22  76 E14G23    29.83R WCI  18
$$
MIZ016>042-251700-
NORTHERN LOWER MICHIGAN

CITY           SKY/WX    TMP DP  RH WIND       PRES   REMARKS
ALPENA         PTSUNNY   13   6  74 NE15      30.01R WCI  -3
BEAVER ISLAND  MOSUNNY    8  -3  59 CALM      30.05R
BELLAIRE       SUNNY     12   2  65 NE5       30.03R WCI   4
CADILLAC       MOSUNNY   10   3  72 NE15      29.91R WCI  -6
CHARLEVOIX     SUNNY     10   3  72 E8        30.05R WCI  -2
FRANKFORT      MOSUNNY   14   4  65 E10       30.01R WCI   1
GAYLORD        SUNNY     10   4  76 E6        29.95R WCI   0
GRAYLING       MOSUNNY    9   4  80 NE8       29.96S WCI  -4
HARBOR SPRINGS MOSUNNY   10   1  69 NE7       30.02R WCI  -2
HOUGHTON LAKE  PTSUNNY   12   4  70 E12       29.95R WCI  -2
MANISTEE       MOSUNNY   14   1  57 E16       29.98R WCI  -2
OSCODA         CLOUDY    17   9  68 NE15      29.99R WCI   3
PELLSTON       MOSUNNY    9   1  70 VRB5      30.03R WCI   1
ROGERS CITY    PTSUNNY   12   7  78 NE6       30.03R WCI   3
TRAVERSE CITY  PTSUNNY   11   4  73 NE10      30.01R WCI  -3
$$
MIZ007>008-015-251700-
EASTERN UPPER MICHIGAN

CITY           SKY/WX    TMP DP  RH WIND       PRES   REMARKS
KINROSS        SUNNY      5  -4  66 NE3       30.03R
MACKINAC ISLAN MOSUNNY    8  -3  59 NE9       30.02S WCI  -5
S. S. MARIE    SUNNY      4  -8  57 VRB3      30.03R
MUNISING         N/A     18   9  68 NE8       30.04R WCI   8
$$
MIZ004>006-011>014-085-251700-
CENTRAL UPPER MICHIGAN

CITY           SKY/WX    TMP DP  RH WIND       PRES   REMARKS
MANISTIQUE     FLURRIES  13   7  78 CALM      30.04R
ESCANABA       CLOUDY    16   7  67 E10       30.04R WCI   3
MENOMINEE      CLOUDY    16   7  67 NE17      30.04R WCI   0
SAWYER-GWINN   LGT SNOW  16   9  73 NE8       30.00R WCI   5
$$
MIZ001>003-009>011-084-251700-
WESTERN UPPER MICHIGAN

CITY           SKY/WX    TMP DP  RH WIND       PRES   REMARKS
IRON MOUNTAIN  CLOUDY    16   7  67 NE6       30.00R WCI   7
HOUGHTON       CLOUDY    13   4  67 NE12      30.04R WCI  -1
COPPER HARBOR    N/A     16   7  67 SE8       30.07R WCI   5
IRONWOOD       CLOUDY    14   3  62 E12       29.99R WCI   0
$$

ABBREVIATIONS USED IN REMARKS
   TC - TEMPERATURE IN CELSIUS
  WCI - WIND CHILL INDEX
   HX - HEAT INDEX
  VSB - VISIBILITY



USA.gov is the U.S. government's official web portal to all federal, state and local government web resources and services.